210  
ASUS43 KFSD 161210  
RWRFSD  
 
WEATHER ROUNDUP FOR SE SOUTH DAKOTA/SW MINNESOTA/NW IOWA  
NATIONAL WEATHER SERVICE SIOUX FALLS SD  
700 AM CDT TUE JUL 16 2019  
 
NOTE: "FAIR" INDICATES FEW OR NO CLOUDS BELOW 12,000 FEET WITH NO  
SIGNIFICANT WEATHER AND OR S TO VISIBILITY
.  
 
 
SDZ038>040-050-052>070-161300-  
SOUTHEAST SOUTH DAKOTA  
 
CITY SKY/WX TMP DP RH WIND PRES REMARKS
 
BROOKINGS PTCLDY 69 67 93 N6 29.89S  
CHAMBERLAIN CLOUDY 71 71 100 NW5 29.93R  
6HR MIN TEMP: 71; 6HR MAX TEMP: 78;  
 
HURON LGT RAIN 73 70 90 W13 29.90R  
6HR MIN TEMP: 71; 6HR MAX TEMP: 76; 6HR PCP: TRACE;  
 
MADISON FAIR 72 72 100 NW8 29.89S  
MITCHELL FAIR 72 66 81 NW14G22 29.88S  
6HR MIN TEMP: 72; 6HR MAX TEMP: 77;  
 
SIOUX FALLS CLOUDY 75 69 81 W6 29.86R  
6HR MIN TEMP: 73; 6HR MAX TEMP: 78; 6HR PCP: TRACE;  
 
WINNER FAIR 67 62 84 SW7 29.93F  
YANKTON PTCLDY 70 68 93 MISG 29.88F  

 
 
MNZ071-072-080-081-089-090-097-098-161300-  
SOUTHWEST MINNESOTA  
 
CITY SKY/WX TMP DP RH WIND PRES REMARKS
 
FAIRMONT SUNNY 71 68 90 S12 29.87R  
JACKSON SUNNY 70 66 88 S10 29.88S  
LUVERNE PTCLDY 72 68 88 SE3 29.87S  
MARSHALL CLEAR 72 69 90 NW5 29.86R  
6HR MIN TEMP: 70; 6HR MAX TEMP: 76;  
 
MONTEVIDEO SUNNY 72 68 88 CALM 29.86R  
PIPESTONE CLEAR 72 70 94 CALM 29.88S  
REDWOOD FALLS SUNNY 74 71 91 CALM 29.84R  
WINDOM SUNNY 72 66 83 S6 29.86S  
WORTHINGTON CLEAR 71 68 90 S6 29.89R  

 
 
IAZ001>003-012>014-020>022-031-032-NEZ013-014-SDZ071-161300-  
NORTHWEST IOWA  
 
CITY SKY/WX TMP DP RH WIND PRES REMARKS
 
CHEROKEE CLOUDY 74 70 88 CALM 29.89R  
DENISON PTCLDY 72 72 100 MISG 29.93S  
ESTHERVILLE SUNNY 69 68 96 S12 29.87R  
LE MARS PTCLDY 73 70 88 W10 29.86R  
MAURICE FAIR 72 70 94 W20G30 29.85F  
SHELDON CLOUDY 73 73 100 S9 29.87R  
SIOUX CITY CLEAR 71 69 93 E6 29.87R  
6HR MIN TEMP: 70; 6HR MAX TEMP: 77; 6HR PCP: 0.61;  
 
SPENCER CLEAR 74 69 85 S10 29.88S  
6HR MIN TEMP: 72; 6HR MAX TEMP: 79;  
 
STORM LAKE CLOUDY 72 70 94 S12 29.88R  

 
 
ABBREVIATIONS USED IN REMARKS  
TC - TEMPERATURE IN CELSIUS  
WCI - WIND CHILL INDEX  
HX - HEAT INDEX  
VSB - VISIBILITY  
 
 
 
CLICK HERE TO GO TO PREVIOUS BULLETINS.

The Nexlab SD Page
The Nexlab IA Page
The Nexlab MN Page
The Nexlab NE Page Main Text Page